Volver al catálogo

TITAN 34B AGENA D DEB

ActivoHEO
NORAD 23812·DEBRIS·🇺🇸 United States

Lanzado Jul 31, 1983 desde Vandenberg Space Force Base

Loading…

Próximos Pases (próximas 24 horas)

TLE

ActualizadoSource: Space-Track

Época: Sep 14, 2026, 00:18 UTC

1 23812U 83078D   26257.01295073  .00000039  00000-0  68053-4 0  9999
2 23812  63.5887 153.8231 3934575 239.3316  76.1887  7.15660126189505

Sigue TITAN 34B AGENA D DEB en tiempo real con AllMySat

Download on the App Store